Time,TemperatureF,DewpointF,PressureIn,WindDirection,WindDirectionDegrees,WindSpeedMPH,WindSpeedGustMPH,Humidity,HourlyPrecipIn,Conditions,Clouds,dailyrainin,SoftwareType,DateUTC
2013-01-25 00:01:00,48.0,42.0,30.03,South,180,0.0,0.0,80,0.00,,,0.00,,2013-01-25 07:01:00,
2013-01-25 00:11:00,48.0,42.0,30.06,South,180,0.0,1.0,80,0.00,,,0.00,,2013-01-25 07:11:00,
2013-01-25 00:21:00,48.0,42.0,30.06,South,180,0.0,1.0,80,0.00,,,0.00,,2013-01-25 07:21:00,
2013-01-25 00:31:00,49.0,43.0,30.03,ENE,68,1.0,3.0,80,0.00,,,0.00,,2013-01-25 07:31:00,
2013-01-25 00:41:00,49.0,43.0,30.03,ENE,68,1.0,3.0,80,0.00,,,0.00,,2013-01-25 07:41:00,
2013-01-25 00:51:00,48.0,42.0,30.03,NNW,338,1.0,1.0,80,0.00,,,0.00,,2013-01-25 07:51:00,
2013-01-25 01:01:00,48.0,42.0,30.03,ESE,113,0.0,0.0,80,0.00,,,0.00,,2013-01-25 08:01:00,
2013-01-25 01:11:00,48.0,42.0,30.03,SE,135,0.0,0.0,81,0.00,,,0.00,,2013-01-25 08:11:00,
2013-01-25 01:21:00,48.0,42.0,30.03,SE,135,0.0,0.0,81,0.00,,,0.00,,2013-01-25 08:21:00,
2013-01-25 01:31:00,48.0,42.0,30.03,SE,135,0.0,1.0,81,0.00,,,0.00,,2013-01-25 08:31:00,
2013-01-25 01:41:00,48.0,42.0,30.03,SE,135,0.0,1.0,81,0.00,,,0.00,,2013-01-25 08:41:00,
2013-01-25 01:52:00,48.0,42.0,30.03,West,270,0.0,0.0,81,0.00,,,0.00,,2013-01-25 08:52:00,
2013-01-25 02:01:00,48.0,42.0,30.03,SSW,203,0.0,1.0,81,0.00,,,0.00,,2013-01-25 09:01:00,
2013-01-25 02:11:00,48.0,42.0,30.03,South,180,0.0,2.0,81,0.00,,,0.00,,2013-01-25 09:11:00,
2013-01-25 02:21:00,48.0,42.0,30.03,South,180,0.0,2.0,81,0.00,,,0.00,,2013-01-25 09:21:00,
2013-01-25 02:31:00,48.0,42.0,30.03,ENE,68,0.0,0.0,81,0.00,,,0.00,,2013-01-25 09:31:00,
2013-01-25 02:41:00,48.0,42.0,30.03,ENE,68,0.0,0.0,81,0.00,,,0.00,,2013-01-25 09:41:00,
2013-01-25 02:52:00,47.0,41.0,30.03,West,270,0.0,1.0,81,0.00,,,0.00,,2013-01-25 09:52:00,
2013-01-25 03:01:00,47.0,41.0,30.03,West,270,2.0,2.0,81,0.00,,,0.00,,2013-01-25 10:01:00,
2013-01-25 03:11:00,48.0,43.0,30.03,West,270,0.0,2.0,82,0.00,,,0.00,,2013-01-25 10:11:00,
2013-01-25 03:21:00,48.0,43.0,30.03,West,270,0.0,2.0,82,0.00,,,0.00,,2013-01-25 10:21:00,
2013-01-25 03:31:00,48.0,43.0,30.03,SSW,203,1.0,1.0,82,0.00,,,0.00,,2013-01-25 10:31:00,
2013-01-25 03:41:00,48.0,43.0,30.03,SSW,203,1.0,1.0,82,0.00,,,0.00,,2013-01-25 10:41:00,
2013-01-25 03:52:00,48.0,43.0,30.06,NNE,23,1.0,1.0,82,0.00,,,0.00,,2013-01-25 10:52:00,
2013-01-25 04:01:00,48.0,43.0,30.03,NNE,23,0.0,0.0,82,0.00,,,0.00,,2013-01-25 11:01:00,
2013-01-25 04:11:00,48.0,43.0,30.03,NNE,23,0.0,0.0,82,0.00,,,0.00,,2013-01-25 11:11:00,
2013-01-25 04:21:00,48.0,43.0,30.03,SE,135,0.0,0.0,82,0.00,,,0.00,,2013-01-25 11:21:00,
2013-01-25 04:31:00,48.0,43.0,30.03,NNW,338,0.0,1.0,82,0.00,,,0.00,,2013-01-25 11:31:00,
2013-01-25 04:41:00,48.0,43.0,30.03,NNW,338,0.0,1.0,82,0.00,,,0.00,,2013-01-25 11:41:00,
2013-01-25 04:52:00,48.0,43.0,30.03,NNE,23,0.0,0.0,82,0.00,,,0.00,,2013-01-25 11:52:00,
2013-01-25 05:01:00,48.0,43.0,30.03,NE,45,1.0,1.0,82,0.00,,,0.00,,2013-01-25 12:01:00,
2013-01-25 05:11:00,48.0,43.0,30.03,NE,45,1.0,1.0,82,0.00,,,0.00,,2013-01-25 12:11:00,
2013-01-25 05:21:00,48.0,42.0,30.03,East,90,0.0,1.0,81,0.00,,,0.00,,2013-01-25 12:21:00,
2013-01-25 05:32:00,48.0,42.0,30.00,SE,135,0.0,0.0,81,0.00,,,0.00,,2013-01-25 12:32:00,
2013-01-25 05:41:00,48.0,42.0,30.00,SE,135,0.0,0.0,81,0.00,,,0.00,,2013-01-25 12:41:00,
2013-01-25 05:53:00,48.0,42.0,30.00,West,270,0.0,0.0,81,0.00,,,0.00,,2013-01-25 12:53:00,
2013-01-25 06:01:00,48.0,42.0,30.00,SSE,158,2.0,2.0,81,0.00,,,0.00,,2013-01-25 13:01:00,
2013-01-25 06:11:00,48.0,42.0,30.00,SSE,158,2.0,2.0,81,0.00,,,0.00,,2013-01-25 13:11:00,
2013-01-25 06:21:00,48.0,42.0,30.03,NNW,338,3.0,3.0,80,0.00,,,0.00,,2013-01-25 13:21:00,
2013-01-25 06:31:00,48.0,42.0,30.03,WNW,293,2.0,3.0,81,0.00,,,0.00,,2013-01-25 13:31:00,
2013-01-25 06:42:00,48.0,42.0,30.03,WNW,293,2.0,3.0,81,0.00,,,0.00,,2013-01-25 13:42:00,
2013-01-25 06:52:00,48.0,42.0,30.03,South,180,1.0,2.0,81,0.00,,,0.00,,2013-01-25 13:52:00,
2013-01-25 07:01:00,48.0,43.0,30.03,West,270,0.0,2.0,82,0.00,,,0.00,,2013-01-25 14:01:00,
2013-01-25 07:11:00,48.0,43.0,30.03,West,270,0.0,2.0,82,0.00,,,0.00,,2013-01-25 14:11:00,
2013-01-25 07:22:00,48.0,43.0,30.03,NNE,23,2.0,2.0,82,0.00,,,0.00,,2013-01-25 14:22:00,
2013-01-25 07:32:00,47.0,42.0,30.03,North,0,0.0,1.0,82,0.00,,,0.00,,2013-01-25 14:32:00,
2013-01-25 07:41:00,47.0,42.0,30.03,North,0,0.0,1.0,82,0.00,,,0.00,,2013-01-25 14:41:00,
2013-01-25 07:53:00,47.0,42.0,30.03,WSW,248,2.0,3.0,82,0.00,,,0.00,,2013-01-25 14:53:00,
2013-01-25 08:01:00,47.0,42.0,30.03,SW,225,2.0,2.0,83,0.00,,,0.00,,2013-01-25 15:01:00,
2013-01-25 08:11:00,47.0,42.0,30.03,SW,225,2.0,2.0,83,0.00,,,0.00,,2013-01-25 15:11:00,
2013-01-25 08:21:00,47.0,42.0,30.00,North,0,0.0,2.0,83,0.00,,,0.00,,2013-01-25 15:21:00,
2013-01-25 08:31:00,47.0,42.0,30.03,West,270,2.0,3.0,83,0.00,,,0.00,,2013-01-25 15:31:00,
2013-01-25 08:41:00,47.0,42.0,30.03,West,270,2.0,3.0,83,0.00,,,0.00,,2013-01-25 15:41:00,
2013-01-25 08:52:00,48.0,43.0,30.03,SW,225,1.0,2.0,83,0.00,,,0.00,,2013-01-25 15:52:00,
2013-01-25 09:01:00,48.0,42.0,30.03,SE,135,0.0,0.0,81,0.00,,,0.00,,2013-01-25 16:01:00,
2013-01-25 09:11:00,48.0,42.0,30.03,SE,135,0.0,0.0,81,0.00,,,0.00,,2013-01-25 16:11:00,
2013-01-25 09:21:00,49.0,43.0,30.03,NE,45,1.0,1.0,79,0.00,,,0.00,,2013-01-25 16:21:00,
2013-01-25 09:31:00,50.0,43.0,30.03,NE,45,2.0,2.0,77,0.00,,,0.00,,2013-01-25 16:31:00,
2013-01-25 09:41:00,50.0,43.0,30.03,NE,45,2.0,2.0,77,0.00,,,0.00,,2013-01-25 16:41:00,
2013-01-25 09:52:00,51.0,43.0,30.03,NE,45,0.0,2.0,75,0.00,,,0.00,,2013-01-25 16:52:00,
2013-01-25 10:01:00,51.0,43.0,30.03,East,90,2.0,3.0,75,0.00,,,0.00,,2013-01-25 17:01:00,
2013-01-25 10:11:00,51.0,43.0,30.03,East,90,2.0,3.0,75,0.00,,,0.00,,2013-01-25 17:11:00,
2013-01-25 10:21:00,52.0,44.0,30.03,East,90,1.0,2.0,74,0.00,,,0.00,,2013-01-25 17:21:00,
2013-01-25 10:31:00,52.0,44.0,30.06,NNE,23,1.0,3.0,74,0.00,,,0.00,,2013-01-25 17:31:00,
2013-01-25 10:42:00,52.0,44.0,30.06,NNE,23,1.0,3.0,74,0.00,,,0.00,,2013-01-25 17:42:00,
2013-01-25 10:53:00,52.0,44.0,30.03,North,0,2.0,2.0,74,0.00,,,0.00,,2013-01-25 17:53:00,
2013-01-25 11:01:00,53.0,45.0,30.03,East,90,2.0,4.0,75,0.00,,,0.00,,2013-01-25 18:01:00,
2013-01-25 11:11:00,53.0,45.0,30.03,East,90,2.0,4.0,75,0.00,,,0.00,,2013-01-25 18:11:00,
2013-01-25 11:22:00,53.0,45.0,30.03,WNW,293,1.0,1.0,74,0.00,,,0.00,,2013-01-25 18:22:00,
2013-01-25 11:32:00,54.0,46.0,30.03,WNW,293,1.0,2.0,73,0.00,,,0.00,,2013-01-25 18:32:00,
2013-01-25 11:41:00,54.0,46.0,30.03,WNW,293,1.0,2.0,73,0.00,,,0.00,,2013-01-25 18:41:00,
2013-01-25 11:52:00,56.0,46.0,30.03,West,270,1.0,4.0,70,0.00,,,0.00,,2013-01-25 18:52:00,
2013-01-25 12:01:00,58.0,47.0,30.00,NE,45,2.0,3.0,68,0.00,,,0.00,,2013-01-25 19:01:00,
2013-01-25 12:11:00,58.0,47.0,30.00,NE,45,2.0,3.0,68,0.00,,,0.00,,2013-01-25 19:11:00,
2013-01-25 12:21:00,58.0,45.0,29.96,ENE,68,1.0,4.0,62,0.00,,,0.00,,2013-01-25 19:21:00,
2013-01-25 12:31:00,59.0,46.0,30.00,NNE,23,2.0,2.0,61,0.00,,,0.00,,2013-01-25 19:31:00,
2013-01-25 12:41:00,59.0,46.0,30.00,NNE,23,2.0,2.0,61,0.00,,,0.00,,2013-01-25 19:41:00,
2013-01-25 12:52:00,59.0,46.0,30.03,West,270,3.0,4.0,61,0.00,,,0.00,,2013-01-25 19:52:00,
2013-01-25 13:01:00,59.0,45.0,30.00,NNW,338,3.0,4.0,60,0.00,,,0.00,,2013-01-25 20:01:00,
2013-01-25 13:11:00,59.0,45.0,30.00,NNW,338,3.0,4.0,60,0.00,,,0.00,,2013-01-25 20:11:00,
2013-01-25 13:21:00,60.0,45.0,29.96,WSW,248,1.0,2.0,58,0.00,,,0.00,,2013-01-25 20:21:00,
2013-01-25 13:31:00,60.0,44.0,29.93,NW,315,2.0,3.0,56,0.00,,,0.00,,2013-01-25 20:31:00,
2013-01-25 13:41:00,60.0,44.0,29.93,NW,315,2.0,3.0,56,0.00,,,0.00,,2013-01-25 20:41:00,
2013-01-25 13:52:00,60.0,44.0,29.93,West,270,4.0,5.0,56,0.00,,,0.00,,2013-01-25 20:52:00,
2013-01-25 14:01:00,59.0,44.0,29.93,SW,225,6.0,8.0,58,0.00,,,0.00,,2013-01-25 21:01:00,
2013-01-25 14:11:00,59.0,44.0,29.93,SW,225,6.0,8.0,58,0.00,,,0.00,,2013-01-25 21:11:00,
2013-01-25 14:22:00,59.0,45.0,29.89,SW,225,5.0,6.0,60,0.00,,,0.00,,2013-01-25 21:22:00,
2013-01-25 14:32:00,59.0,45.0,29.93,West,270,3.0,6.0,60,0.00,,,0.00,,2013-01-25 21:32:00,
2013-01-25 14:42:00,59.0,45.0,29.93,West,270,3.0,6.0,60,0.00,,,0.00,,2013-01-25 21:42:00,
2013-01-25 14:52:00,59.0,45.0,29.93,West,270,4.0,5.0,60,0.00,,,0.00,,2013-01-25 21:52:00,
2013-01-25 15:01:00,60.0,46.0,29.93,ESE,113,1.0,4.0,59,0.00,,,0.00,,2013-01-25 22:01:00,
2013-01-25 15:11:00,60.0,46.0,29.93,ESE,113,1.0,4.0,59,0.00,,,0.00,,2013-01-25 22:11:00,
2013-01-25 15:21:00,60.0,46.0,29.93,North,0,0.0,3.0,59,0.00,,,0.00,,2013-01-25 22:21:00,
2013-01-25 15:31:00,60.0,44.0,29.93,NNW,338,3.0,3.0,56,0.00,,,0.00,,2013-01-25 22:31:00,
2013-01-25 15:41:00,60.0,44.0,29.93,NNW,338,3.0,3.0,56,0.00,,,0.00,,2013-01-25 22:41:00,
2013-01-25 15:51:00,60.0,44.0,29.89,NNW,338,0.0,1.0,55,0.00,,,0.00,,2013-01-25 22:51:00,
2013-01-25 16:02:00,61.0,44.0,29.89,NE,45,1.0,3.0,54,0.00,,,0.00,,2013-01-25 23:02:00,
2013-01-25 16:11:00,61.0,44.0,29.89,NE,45,1.0,3.0,54,0.00,,,0.00,,2013-01-25 23:11:00,
2013-01-25 16:21:00,61.0,44.0,29.89,ENE,68,1.0,3.0,54,0.00,,,0.00,,2013-01-25 23:21:00,
2013-01-25 16:31:00,60.0,43.0,29.89,SSW,203,0.0,2.0,54,0.00,,,0.00,,2013-01-25 23:31:00,
2013-01-25 16:41:00,60.0,43.0,29.89,SSW,203,0.0,2.0,54,0.00,,,0.00,,2013-01-25 23:41:00,
2013-01-25 16:52:00,60.0,44.0,29.86,West,270,0.0,0.0,55,0.00,,,0.00,,2013-01-25 23:52:00,
2013-01-25 17:01:00,59.0,43.0,29.86,NNW,338,0.0,0.0,56,0.00,,,0.00,,2013-01-26 00:01:00,
2013-01-25 17:11:00,59.0,43.0,29.86,NNW,338,0.0,0.0,56,0.00,,,0.00,,2013-01-26 00:11:00,
2013-01-25 17:22:00,59.0,44.0,29.83,North,0,0.0,2.0,57,0.00,,,0.00,,2013-01-26 00:22:00,
2013-01-25 17:31:00,58.0,44.0,29.83,SSW,203,0.0,0.0,59,0.00,,,0.00,,2013-01-26 00:31:00,
2013-01-25 17:41:00,58.0,44.0,29.83,SSW,203,0.0,0.0,59,0.00,,,0.00,,2013-01-26 00:41:00,
2013-01-25 17:53:00,57.0,44.0,29.86,SSW,203,0.0,0.0,61,0.00,,,0.00,,2013-01-26 00:53:00,
2013-01-25 18:01:00,57.0,45.0,29.86,South,180,0.0,2.0,63,0.00,,,0.00,,2013-01-26 01:01:00,
2013-01-25 18:11:00,57.0,45.0,29.86,South,180,0.0,2.0,63,0.00,,,0.00,,2013-01-26 01:11:00,
2013-01-25 18:22:00,56.0,44.0,29.83,SSE,158,1.0,1.0,65,0.00,,,0.00,,2013-01-26 01:22:00,
2013-01-25 18:31:00,56.0,45.0,29.86,East,90,0.0,1.0,66,0.00,,,0.00,,2013-01-26 01:31:00,
2013-01-25 18:41:00,56.0,45.0,29.86,East,90,0.0,1.0,66,0.00,,,0.00,,2013-01-26 01:41:00,
2013-01-25 18:52:00,56.0,45.0,29.86,East,90,0.0,1.0,67,0.00,,,0.00,,2013-01-26 01:52:00,
2013-01-25 19:01:00,55.0,45.0,29.86,NNE,23,1.0,2.0,68,0.00,,,0.00,,2013-01-26 02:01:00,
2013-01-25 19:11:00,55.0,45.0,29.86,NNE,23,1.0,2.0,68,0.00,,,0.00,,2013-01-26 02:11:00,
2013-01-25 19:21:00,55.0,45.0,29.86,NE,45,1.0,3.0,70,0.00,,,0.00,,2013-01-26 02:21:00,
2013-01-25 19:32:00,55.0,46.0,29.86,SE,135,1.0,3.0,71,0.00,,,0.00,,2013-01-26 02:32:00,
2013-01-25 19:41:00,55.0,46.0,29.86,SE,135,1.0,3.0,71,0.00,,,0.00,,2013-01-26 02:41:00,
2013-01-25 19:52:00,54.0,46.0,29.89,NNE,23,1.0,2.0,73,0.00,,,0.00,,2013-01-26 02:52:00,
2013-01-25 20:01:00,54.0,46.0,29.89,North,0,1.0,4.0,75,0.00,,,0.00,,2013-01-26 03:01:00,
2013-01-25 20:11:00,54.0,46.0,29.89,North,0,1.0,4.0,75,0.00,,,0.00,,2013-01-26 03:11:00,
2013-01-25 20:21:00,53.0,46.0,29.89,East,90,3.0,5.0,76,0.00,,,0.00,,2013-01-26 03:21:00,
2013-01-25 20:31:00,52.0,45.0,29.89,ENE,68,2.0,4.0,77,0.00,,,0.00,,2013-01-26 03:31:00,
2013-01-25 20:42:00,52.0,45.0,29.89,ENE,68,2.0,4.0,77,0.00,,,0.00,,2013-01-26 03:42:00,
2013-01-25 20:52:00,52.0,46.0,29.86,East,90,2.0,4.0,80,0.05,,,0.05,,2013-01-26 03:52:00,
2013-01-25 21:01:00,52.0,46.0,29.89,ENE,68,2.0,2.0,81,0.05,,,0.05,,2013-01-26 04:01:00,
2013-01-25 21:12:00,52.0,46.0,29.89,ENE,68,2.0,2.0,81,0.05,,,0.05,,2013-01-26 04:12:00,
2013-01-25 21:21:00,51.0,46.0,29.86,ENE,68,1.0,3.0,83,0.05,,,0.05,,2013-01-26 04:21:00,
2013-01-25 21:32:00,51.0,46.0,29.83,ENE,68,1.0,2.0,84,0.05,,,0.05,,2013-01-26 04:32:00,
2013-01-25 21:42:00,51.0,46.0,29.83,ENE,68,1.0,2.0,84,0.05,,,0.05,,2013-01-26 04:42:00,
2013-01-25 21:52:00,51.0,47.0,29.86,East,90,2.0,2.0,85,0.04,,,0.09,,2013-01-26 04:52:00,
2013-01-25 22:01:00,51.0,47.0,29.86,ESE,113,2.0,3.0,86,0.04,,,0.09,,2013-01-26 05:01:00,
2013-01-25 22:12:00,51.0,47.0,29.86,ESE,113,2.0,3.0,86,0.04,,,0.09,,2013-01-26 05:12:00,
2013-01-25 22:22:00,51.0,47.0,29.86,ESE,113,2.0,3.0,86,0.04,,,0.09,,2013-01-26 05:22:00,
2013-01-25 22:32:00,50.0,46.0,29.86,East,90,0.0,2.0,86,0.04,,,0.09,,2013-01-26 05:32:00,
2013-01-25 22:41:00,50.0,46.0,29.86,East,90,0.0,2.0,86,0.04,,,0.09,,2013-01-26 05:41:00,
2013-01-25 22:52:00,50.0,46.0,29.86,ENE,68,3.0,3.0,87,0.04,,,0.13,,2013-01-26 05:52:00,
2013-01-25 23:02:00,50.0,47.0,29.86,East,90,0.0,2.0,89,0.04,,,0.13,,2013-01-26 06:02:00,
2013-01-25 23:11:00,50.0,47.0,29.86,East,90,0.0,2.0,89,0.04,,,0.13,,2013-01-26 06:11:00,
2013-01-25 23:21:00,50.0,47.0,29.86,SSW,203,0.0,1.0,89,0.08,,,0.16,,2013-01-26 06:21:00,
2013-01-25 23:31:00,50.0,47.0,29.89,ESE,113,0.0,0.0,90,0.08,,,0.16,,2013-01-26 06:31:00,
2013-01-25 23:41:00,50.0,47.0,29.89,ESE,113,0.0,0.0,90,0.08,,,0.16,,2013-01-26 06:41:00,
2013-01-25 23:52:00,50.0,47.0,29.86,East,90,0.0,0.0,91,0.08,,,0.20,,2013-01-26 06:52:00,